Weather History for Cotulla, TX

Change the Weather History Date:

Friday, May 3, 2013

  Actual Average Record
Temperature  
Mean Temperature 60 °F -  
Max Temperature 73 °F 88 °F 97 °F (2012)
Min Temperature 48 °F 65 °F 44 °F (2011)
Degree Days  
Heating Degree Days 4    
Growing Degree Days 10 (Base 50)    
Moisture  
Dew Point 29 °F    
Average Humidity 34    
Maximum Humidity 56    
Minimum Humidity 13    
Precipitation  
Precipitation 0.00 in - - ()
Sea Level Pressure  
Sea Level Pressure 30.26 in    
Wind  
Wind Speed 11 mph (NNW)    
Max Wind Speed 18 mph    
Max Gust Speed 28 mph    
Visibility 10 miles    
Events      
Averages and records for this station are not official NWS values.
T = Trace of Precipitation, MM = Missing Value Source: NWS Daily Summary

Daily Weather History Graph

Daily Weather History Graph

Search for Another Location

Airport:

Trip Planner

Search our weather history database for the weather conditions in past years. The results will help you decide how hot, cold, wet, or windy it might be!

Date:

Astronomy

May. 03, 2013 Rise Set
Actual Time 6:54 AM CDT 8:13 PM CDT
Civil Twilight 6:29 AM CDT 8:38 PM CDT
Nautical Twilight 5:59 AM CDT 9:08 PM CDT
Astronomical Twilight 5:28 AM CDT 9:39 PM CDT
Moon 2:48 AM CDT (5/3) 2:38 PM CDT (5/3)
Length of Visible Light 14h 09m
Length of Day
13h 18m
Last Quarter, 37% of the Moon is Illuminated
May 3
Last Quarter
May 9
New
May 17
First Quarter
May 24
Full
May 31
Last Quarter

Hourly Weather History & Observations

Time (CDT) Temp. Dew Point Humidity Pressure Visibility Wind Dir Wind Speed Gust Speed Precip Events Conditions
12:53 AM 57.0 °F 37.0 °F 47% 30.38 in 10.0 mi North 12.7 mph 23.0 mph N/A   Overcast
1:53 AM 55.9 °F 35.1 °F 45% 30.38 in 10.0 mi North 17.3 mph 24.2 mph N/A   Overcast
2:53 AM 55.9 °F 34.0 °F 44% 30.36 in 10.0 mi North 11.5 mph 19.6 mph N/A   Overcast
3:53 AM 53.1 °F 33.1 °F 47% 30.36 in 10.0 mi NW 10.4 mph - N/A   Partly Cloudy
4:53 AM 51.1 °F 34.0 °F 52% 30.37 in 10.0 mi NW 8.1 mph - N/A   Clear
5:53 AM 50.0 °F 33.1 °F 52% 30.38 in 10.0 mi WNW 6.9 mph - N/A   Clear
6:53 AM 48.0 °F 33.1 °F 56% 30.39 in 10.0 mi WNW 6.9 mph - N/A   Clear
7:53 AM 50.0 °F 33.1 °F 52% 30.41 in 10.0 mi NW 8.1 mph - N/A   Clear
8:53 AM 54.0 °F 30.9 °F 41% 30.41 in 10.0 mi WNW 12.7 mph - N/A   Clear
9:53 AM 57.9 °F 28.0 °F 32% 30.40 in 10.0 mi NNW 15.0 mph 24.2 mph N/A   Clear
10:53 AM 62.1 °F 26.1 °F 25% 30.38 in 10.0 mi North 16.1 mph 27.6 mph N/A   Clear
11:53 AM 64.9 °F 26.1 °F 23% 30.35 in 10.0 mi North 18.4 mph 26.5 mph N/A   Clear
12:53 PM 66.9 °F 24.1 °F 20% 30.31 in 10.0 mi NNW 13.8 mph 24.2 mph N/A   Clear
1:53 PM 70.0 °F 25.0 °F 18% 30.26 in 10.0 mi NNW 10.4 mph 18.4 mph N/A   Clear
2:53 PM 71.1 °F 23.0 °F 16% 30.22 in 10.0 mi NW 10.4 mph 16.1 mph 0.00 in   Clear
3:53 PM 72.0 °F 23.0 °F 16% 30.17 in 10.0 mi North 5.8 mph - 0.00 in   Clear
4:53 PM 73.0 °F 21.0 °F 14% 30.13 in 10.0 mi North 10.4 mph - 0.00 in   Clear
5:53 PM 73.9 °F 19.9 °F 13% 30.10 in 10.0 mi North 10.4 mph - 0.00 in   Clear
6:53 PM 73.0 °F 21.0 °F 14% 30.09 in 10.0 mi NNW 4.6 mph - N/A   Clear
7:53 PM 70.0 °F 21.9 °F 16% 30.09 in 10.0 mi Calm Calm - N/A   Clear
8:53 PM 61.0 °F 30.0 °F 31% 30.10 in 10.0 mi Calm Calm - N/A   Clear
9:53 PM 55.9 °F 34.0 °F 44% 30.10 in 10.0 mi Calm Calm - N/A   Clear
10:53 PM 54.0 °F 34.0 °F 47% 30.10 in 10.0 mi SSE 3.5 mph - N/A   Clear
11:53 PM 54.0 °F 32.0 °F 43% 30.10 in 10.0 mi ESE 5.8 mph - N/A   Clear